This demonstration page uses our WeatherBlox Daily Observations layout. Learn more.

Left ArrowRight Arrow

39.95238, -75.16362

Hourly Observations for February 16, 2017

Temp ( °F °C ) Dew Point ( °F °C ) Humidity (%) Winds ( mph kmh ) Pressure ( in mb ) Visibility ( mi km ) Precip ( " mm )
12:54 am 00:54 Cloudy 37 2.8 18 -7.8 46 46 WNW 16 26 29.57 1001 10 16 0.00 0.00
1:54 am 01:54 Cloudy 36 2.2 19 -7.2 50 50 WNW 14 22 29.57 1001 10 16 0.00 0.00
2:54 am 02:54 Cloudy 36 2.2 16 -8.9 44 44 NW 20 31 29.57 1001 10 16 0.00 0.00
3:54 am 03:54 Cloudy 35 1.7 19 -7.2 52 52 WNW 15 24 29.58 1002 10 16 0.00 0.00
4:54 am 04:54 Partly Cloudy 34 1.1 16 -8.9 48 48 WNW 17 28 29.60 1002 10 16 0.00 0.00
5:54 am 05:54 Partly Cloudy 33 0.6 14 -10 45 45 WNW 12 19 29.62 1003 10 16 0.00 0.00
6:54 am 06:54 Mostly Cloudy 33 0.6 15 -9.4 47 47 WNW 10 17 29.63 1004 10 16 0.00 0.00
7:54 am 07:54 Mostly Cloudy 33 0.6 14 -10 45 45 WNW 17 28 29.65 1004 10 16 0.00 0.00
8:54 am 08:54 Mostly Cloudy 36 2.2 15 -9.4 42 42 WNW 13 20 29.67 1005 10 16 0.00 0.00
9:54 am 09:54 Mostly Cloudy 35 1.7 14 -10 42 42 NW 20 31 29.68 1005 10 16 0.00 0.00
10:54 am 10:54 Mostly Cloudy 37 2.8 13 -10.6 37 37 WNW 18 30 29.69 1005 10 16 0.00 0.00
11:54 am 11:54 Mostly Cloudy 38 3.3 14 -10 37 37 WNW 16 26 29.68 1005 10 16 0.00 0.00
12:54 pm 12:54 Mostly Cloudy 38 3.3 15 -9.4 39 39 WNW 24 39 29.67 1005 10 16 0.00 0.00
1:54 pm 13:54 Mostly Cloudy 38 3.3 14 -10 37 37 NW 21 33 29.68 1005 10 16 0.00 0.00
2:54 pm 14:54 Mostly Cloudy 38 3.3 14 -10 37 37 WNW 20 31 29.70 1006 10 16 0.00 0.00
3:54 pm 15:54 Mostly Cloudy 37 2.8 14 -10 39 39 WNW 20 31 29.71 1006 10 16 0.00 0.00
4:54 pm 16:54 Mostly Cloudy 37 2.8 13 -10.6 37 37 NW 21 33 29.74 1007 10 16 0.00 0.00
5:54 pm 17:54 Mostly Cloudy 37 2.8 13 -10.6 37 37 WNW 15 24 29.77 1008 10 16 0.00 0.00
6:54 pm 18:54 Partly Cloudy 36 2.2 13 -10.6 39 39 WNW 18 30 29.80 1009 10 16 0.00 0.00
7:54 pm 19:54 Clear 34 1.1 15 -9.4 46 46 WNW 13 20 29.82 1010 10 16 0.00 0.00
8:54 pm 20:54 Clear 34 1.1 15 -9.4 46 46 W 9 15 29.83 1010 10 16 0.00 0.00
9:54 pm 21:54 Clear 33 0.6 14 -10 45 45 WNW 15 24 29.85 1011 10 16 0.00 0.00
10:54 pm 22:54 Clear 32 0 15 -9.4 50 50 W 9 15 29.86 1011 10 16 0.00 0.00
11:54 pm 23:54 Clear 31 -0.6 15 -9.4 52 52 WNW 10 17 29.88 1012 10 16 0.00 0.00

Powered by AerisWeather